EHI
0 0 0 0 0 0 0 0 0 0 0 0 0 0 0 0 0 0 0 0 0 0 0 0 0 0 0 0 0 0 0 0 0 0 0 0 0 0
0 0 0 0 0 0 0 0 0 0 0 0 0 0 0 0 0 0 0 0 0 0 0 0 0 0 0 0 0 0 0 0 0 0 0 0 0 0
0 0 0 0 0 0 0 0 0 0 0 0 0 0 0 0 0 0 0 0 0 0 0 0 0 0 0 0 0 0 0 0 0 0 0 0 0 0
0 0 0 0 0 0 0 0 0 0 0 0 0 0 0 0 0 0 0 0 0 0 0 0 0 0 0 0 0 0 0 0 0 0 0 0 0 0
0 0 0 0 0 0 0 0 0 0 0 0 0 0 0 0 0 0 0 0 0 0 0 0 0 0 0 0 0 0 0 0 0 0 0 0 0 0
0 0 0 0 0 0 0 0 0 0 0 0 0 0 0 0 0 0 0 0 0 0 0 0 0 0 0 0 0 0 0 0 0 0 0 0 0 0
0 0 0 0 0 0 0 0 0 0 0 0 0 0 0 0 0 0 0 0 0 0 0 0 0 0 0 0 0 0 0 0 0 0 0 0 0 0
0 0 0 0 0 0 0 0 0 0 0 0 0 0 0 0 0 0 0 0 0 0 0 0 0 0 0 0 0 0 0 0 0 0 0 0 0 0
0 0 0 0 0 0 0 0 0 0 0 0 0 0 0 0 0 0 0 0 0 0 0 0 0 0 0 0 0 0 0 0 0 0 0 0 0 0
0 0 0 0 0 0 0 0 0 0 0 0 0 0 0 0 0 0 0 0 0 0 0 0 0 0 0 0 0 0 0 0 0 0 0 0 0 0
0 0 0 0 0 0 0 0 0 0 0 0 0 0 0 0 0 0 0 0 0 0 0 0 0 0 0 0 0 0 0 0 0 0 0 0 0 0
0 0 0 0 0 0 0 0 0 0 0 0 0 0 0 0 0 0 0 0 0 0 0 0 0 0 0 0 0 0 0 0 0 0 0 0 0 0
0 0 0 0 0 0 0 0 0 0 0 0 0 0 0 0 0 0 0 0 0 0 0 0 0 0 0 0 0 0 0 0 0 0 0 0 0 0
0 0 0 0 0 0 0 0 0 0 0 0 0 0 0 0 0 0 0 0 0 0 0 0 0 0 0 0 0 0 0 0 0 0 0 0 0 0
0 0 0 0 0 0 0 0 0 0 0 0 0 0 0 0 0 0 0 0 0 0 0 0 0 0 0 0 0 0 0 0 0 0 0 0 0 0
0 0 0 0 0 0 0 0 0 0 0 0 0 0 0 0 0 0 0 0 0 0 0 0 0 0 0 0 0 0 0 0 0 0 0 0 0 0
0 0 0 0 0 0 0 0 0 0 0 0 0 0 0 0 0 0 0 0 0 0 0 0 0 0 0 0 0 0 0 0 0 0 0 0 0 0
0 0 0 0 0 0 0 0 0 0 0 0 0 0 0 0 0 0 0 0 0 0 0 0 0 0 0 0 0 0 0 0 0 0 0 0 0 0
0 0 0 0 0 0 0 0 0 0 0 0 0 0 0 0 0 0 0 0 0 0 0 0 0 0 0 0 0 0 0 0 0 0 0 0 0 0
0 0 0 0 0 0 0 0 0 0 0 0 0 0 0 0 0 0 0 0 0 0 0 0 0 0 0 0 0 0 0 0 0 0 0 0 0 0
0 0 0 0 0 0 0 0 0 0 0 0 0 0 0 0 0 0 0 0 0 0 0 0 0 0 0 0 0 0 0 0 0 0 0 0 0 0
0 0 0 0 0 0 0 0 0 0 0 0 0 0 0 0 0 0 0 0 0 0 0 0 0 0 0 0 0 0 0 0 0 0 0 0 0 0
0 0 0 0 0 0 0 0 0 0 0 0 0 0 0 0 0 0 0 0 0 0 0 0 0 0 0 0 0 0 0 0 0 0 0 0 0 0
Wind_Speed
8 8 5 4 4 3 3 4 5 3 3 3 2 3 3 3 3 2 2 4 5 6 7 7 8 9 10 10 11 12 12 13 14 15 16 17 18 18
7 8 6 4 4 4 4 3 3 4 3 2 2 2 2 2 3 2 2 4 5 6 6 7 7 8 9 10 10 11 12 12 13 14 16 17 17 18
9 10 9 7 5 4 4 3 3 3 3 2 1 1 2 2 1 1 1 1 2 5 6 7 7 8 9 9 9 10 11 12 13 14 16 16 17 18
12 11 10 7 7 6 5 5 4 3 4 3 1 1 1 2 1 1 1 1 1 4 6 6 7 8 8 8 9 9 10 12 13 14 15 16 17 18
13 12 11 10 9 6 6 5 4 3 3 3 2 1 1 1 1 1 1 1 2 3 4 6 8 8 8 9 9 9 10 11 12 13 14 15 16 17
11 11 11 11 11 10 7 7 5 4 3 3 2 1 1 1 1 0 1 2 2 2 3 5 7 8 8 9 8 9 9 11 12 13 14 14 15 16
10 10 10 11 12 10 8 7 7 5 4 3 2 1 1 1 1 1 1 2 2 1 2 3 3 3 4 6 7 8 9 10 11 13 13 14 15 16
10 9 10 11 12 13 12 11 10 8 6 4 3 3 3 2 1 1 0 1 2 2 2 4 2 3 3 2 7 9 9 10 11 12 13 14 14 16
11 10 8 9 11 9 10 10 8 8 8 6 5 4 3 3 3 1 1 1 2 2 1 3 2 3 3 4 9 9 10 11 12 12 13 14 15 15
10 11 11 10 10 11 8 7 5 4 5 4 4 4 3 3 3 3 2 0 1 1 1 2 3 3 4 3 7 9 11 12 12 13 13 14 15 15
9 10 12 11 15 16 11 9 7 5 6 9 8 7 6 5 4 3 2 2 1 1 1 1 2 4 4 2 4 9 12 13 13 13 14 14 15 13
8 9 13 14 18 18 12 11 10 7 7 6 6 5 4 4 5 3 3 2 0 1 1 1 1 3 4 3 3 4 5 10 13 14 14 15 15 7
8 7 8 17 18 18 13 9 11 10 8 6 5 3 3 2 2 2 2 2 2 1 1 1 1 2 2 4 5 3 3 5 6 7 10 15 15 11
9 7 9 18 17 16 11 13 16 12 7 6 4 3 2 2 1 2 2 1 1 2 2 1 1 1 2 4 5 5 5 4 4 4 4 11 12 14
8 12 15 18 16 12 15 17 13 8 6 6 5 3 2 3 2 2 2 2 2 1 1 1 1 2 2 3 4 4 5 5 4 4 5 5 5 5
10 14 17 17 12 12 12 9 6 6 6 5 5 4 3 3 2 1 1 1 2 2 2 2 1 2 3 4 4 5 4 4 5 6 6 5 5 4
11 8 7 8 8 7 6 6 5 6 5 5 5 4 4 3 2 1 1 1 1 1 3 3 3 3 4 3 3 4 4 4 5 5 6 6 5 4
13 9 9 8 8 8 8 7 5 5 5 5 5 4 4 3 2 1 1 1 1 1 1 2 3 4 3 3 3 3 3 3 5 5 4 5 6 5
10 9 8 8 8 8 7 7 6 5 5 6 5 5 4 4 3 2 1 1 1 1 1 1 2 2 3 5 5 3 3 5 6 5 4 4 5 7
7 9 8 8 8 8 8 7 7 6 6 5 5 5 4 4 3 2 2 1 1 1 1 1 1 1 2 3 4 5 7 5 5 5 5 4 4 8
7 7 7 8 8 8 8 7 7 7 6 6 5 5 5 4 3 2 2 1 1 0 1 2 3 5 2 1 3 4 5 7 7 5 5 4 4 4
8 8 7 8 8 8 8 8 8 7 7 6 5 5 4 4 4 3 2 2 0 0 1 2 2 2 1 2 3 5 5 6 8 10 7 5 3 3
8 8 8 8 8 8 8 9 9 7 6 6 6 5 5 4 3 3 2 2 1 1 1 2 2 2 2 2 2 3 5 6 5 5 5 9 10 8
Wind_Direction
184 181 178 178 173 172 160 154 157 181 220 212 187 184 171 158 172 177 216 264 274 284 292 300 304 306 309 312 315 316 318 320 322 322 322 323 324 326
178 178 179 175 171 168 165 162 157 163 198 207 179 168 152 155 176 176 229 270 274 286 293 301 305 309 312 312 313 316 319 321 323 323 323 324 325 326
180 180 182 174 170 169 162 159 164 155 186 232 149 127 138 167 174 200 231 237 263 286 294 301 306 310 312 311 313 318 321 322 322 323 323 325 326 327
182 181 182 175 172 169 166 171 173 167 167 197 208 142 162 175 173 234 270 278 266 285 296 303 310 311 312 313 316 320 322 323 323 324 325 326 327 327
182 182 180 175 178 172 169 172 172 166 161 168 194 174 134 126 97 304 301 307 298 304 303 311 312 316 313 314 318 322 324 324 324 325 326 328 329 328
181 181 180 180 180 174 173 174 167 163 162 163 182 182 159 104 103 296 312 310 309 319 326 322 316 314 313 316 320 322 323 323 324 327 329 331 331 329
177 178 179 177 176 174 172 171 166 166 164 168 179 170 176 157 197 198 272 307 304 327 326 307 307 302 302 312 318 319 323 324 325 327 329 330 331 329
176 173 171 170 172 170 167 166 168 171 177 175 180 186 202 186 163 144 132 350 299 315 332 301 299 297 297 292 314 323 325 327 327 329 330 331 330 330
174 171 169 170 165 162 158 156 164 171 172 171 176 188 176 175 154 161 201 227 248 282 339 295 306 300 304 318 322 324 330 332 332 332 332 332 332 332
175 173 168 165 165 158 152 150 146 145 152 148 153 151 142 145 160 171 180 13 327 337 35 296 307 307 315 313 322 334 338 336 335 336 336 336 335 335
171 170 166 166 164 157 154 150 140 131 117 119 118 119 120 118 118 107 92 69 330 308 10 353 312 317 312 310 322 334 336 336 337 340 340 338 337 339
164 167 169 167 164 161 163 159 159 156 140 127 114 101 98 98 96 116 141 129 122 282 333 7 333 346 322 307 316 322 328 331 336 336 337 338 339 341
167 167 169 164 163 164 162 164 163 150 143 137 130 120 104 95 87 89 108 137 156 238 267 13 327 333 303 306 309 312 322 322 321 322 332 337 339 340
167 161 159 159 159 158 155 150 145 138 135 136 138 142 141 130 103 95 93 88 138 214 235 211 249 276 304 306 299 309 317 313 315 317 321 330 333 334
153 150 148 148 146 147 146 144 142 140 142 145 151 153 144 137 118 89 56 51 25 348 298 258 247 274 270 276 290 300 313 314 319 328 323 322 318 321
136 137 136 137 136 138 141 143 143 147 148 147 142 134 125 122 117 107 81 38 28 358 352 343 297 272 278 274 274 287 299 301 318 326 322 318 316 315
135 131 135 140 144 144 139 137 139 142 140 135 135 134 132 127 112 97 90 63 60 342 336 336 323 298 266 257 278 284 295 303 310 323 327 323 314 313
137 146 150 152 154 154 151 146 147 149 145 140 140 141 143 142 129 98 71 74 59 5 331 328 342 350 351 323 257 283 302 304 315 319 320 319 316 318
142 150 154 156 155 154 151 149 150 147 142 140 142 144 144 141 134 126 102 71 46 4 320 329 354 9 355 331 310 300 308 314 319 319 313 309 303 308
150 152 154 154 154 153 150 146 143 140 139 141 142 144 146 142 137 139 138 118 74 4 338 335 336 332 311 297 296 295 303 309 313 314 310 305 292 298
151 147 148 148 149 147 146 145 145 145 144 144 145 145 146 140 138 139 137 98 68 38 318 303 292 321 308 302 310 308 306 317 320 310 309 315 319 327
148 147 145 144 145 144 143 142 141 142 145 144 144 143 142 141 142 141 142 137 127 299 310 308 314 333 353 337 321 315 318 325 333 335 328 317 324 334
147 144 142 144 144 143 143 143 143 145 148 146 144 143 142 138 135 133 130 125 114 58 15 352 347 348 338 321 316 316 324 329 332 339 341 345 348 341